COSMOS 1833             
1 17589U 87027A   23266.57544822  .00000012  00000+0  32298-4 0  9990
2 17589  70.9221  53.6658 0020445 106.4245 253.9125 14.12961154883441
SL-16 R/B               
1 17590U 87027B   23266.57112770 -.00000159  00000+0 -55260-4 0  9993
2 17590  71.0060   8.6535 0003574  26.3538 333.7767 14.16908898888151
SL-14 R/B               
1 17912U 87038B   23266.53332986  .00000930  00000+0  10935-3 0  9996
2 17912  82.5002  61.7541 0018488 248.4507 111.4738 14.83719476945971
COSMOS 1844             
1 17973U 87041A   23266.01854098  .00000332  00000+0  19821-3 0  9992
2 17973  70.8981 129.2578 0032881 290.1679  69.5907 14.14248539876516
SL-14 R/B               
1 18153U 87055B   23267.07007522  .00000694  00000+0  80194-4 0  9990
2 18153  82.4972 114.0705 0022813  97.5653 262.8155 14.83973898957821
COSMOS 1867             
1 18187U 87060A   23267.13064789  .00000006  00000+0  40115-4 0  9994
2 18187  65.0102 299.7979 0016551 281.9681  77.9548 14.31228651891692
COSMOS 1892             
1 18421U 87088A   23266.19695991  .00012652  00000+0  48002-3 0  9997
2 18421  82.4982 168.4994 0010392 220.4169 139.6298 15.26683203965904
SL-14 R/B               
1 18749U 88001B   23266.67251435  .00000673  00000+0  78044-4 0  9990
2 18749  82.5143 319.0973 0017692 328.9800  31.0369 14.83898452929858
COSMOS 1933             
1 18958U 88020A   23266.81034938  .00005374  00000+0  35305-3 0  9991
2 18958  82.5262  51.4495 0012724  44.4668 315.7579 15.07364487935700
SL-3 R/B                
1 19046U 88032B   23266.52050870  .00005584  00000+0  37312-3 0  9997
2 19046  97.4239 251.7350 0036035  96.7616 263.7715 15.06835855916262
SL-16 R/B               
1 19120U 88039B   23266.78092146  .00000044  00000+0  43834-4 0  9990
2 19120  71.0153 166.7783 0024281 276.7561  83.0800 14.19340095831233
COSMOS 1953             
1 19210U 88050A   23267.20526965  .00005620  00000+0  33253-3 0  9990
2 19210  82.5158 328.5293 0016518  18.8243 341.3594 15.11142060922624
SL-8 R/B                
1 19257U 88053B   23266.60466588  .00000379  00000+0  13400-3 0  9999
2 19257  74.0492 326.5729 0020348   6.6160 100.6354 14.37917932847466
COSMOS 1975             
1 19573U 88093A   23267.08916631  .00005679  00000+0  34485-3 0  9990
2 19573  82.5238 285.5176 0018247  63.0541 297.2550 15.10174277904334
SL-14 R/B               
1 19574U 88093B   23266.80313800  .00000783  00000+0  90731-4 0  9997
2 19574  82.5345 163.8198 0022563 123.4600 300.3346 14.84013599888888
SL-16 R/B               
1 19650U 88102B   23267.13394870 -.00000113  00000+0 -33051-4 0  9997
2 19650  70.9980 239.6836 0016528 293.5190  66.4196 14.15909548800112
INTERCOSMOS 24          
1 20261U 89080A   23266.69153462  .00001218  00000+0  36230-3 0  9999
2 20261  82.6092 327.6504 1197625 213.0649 138.9766 12.57238632553432
SL-14 R/B               
1 20262U 89080C   23266.42573208  .00000496  00000+0  14067-3 0  9996
2 20262  82.5978  29.5978 1235399  76.4745 297.0690 12.49465290547920
DELTA 2 R/B(1)          
1 20303U 89085B   23266.54474043  .00324712  38556-4  11511-2 0  9999
2 20303  35.6267 316.0081 0028294 148.8388 211.4042 15.87273438852369
DELTA 1 R/B             
1 20323U 89089B   23266.52652821  .00000893  00000+0  23656-3 0  9998
2 20323  97.0798 238.3614 0072616  75.8162 285.1089 14.49002854765581
ARIANE 40 R/B           
1 20443U 90005H   23266.14485985  .00000543  00000+0  19125-3 0  9992
2 20443  98.4302 331.9739 0010740  28.6214 331.5561 14.38614040763552
DELTA 2 R/B(1)          
1 20453U 90008B   23266.43892373  .00019084  00000+0  84272-3 0  9996
2 20453  35.6229  17.7482 0232285 246.2539 111.3657 14.99920361789186
COSMOS 2058             
1 20465U 90010A   23266.34956650  .00003620  00000+0  28023-3 0  9992
2 20465  82.4892 203.8410 0015978 129.5001 230.7639 15.01093114807019
SL-14 R/B               
1 20466U 90010B   23266.73999379  .00000843  00000+0  10297-3 0  9999
2 20466  82.5053  29.7227 0020815  20.4500 339.7542 14.82024319816472
SL-14 R/B               
1 20511U 90018B   23266.60580182  .00000723  00000+0  90882-4 0  9998
2 20511  82.5259 341.5800 0017707 159.1814 318.1293 14.80657569789613
HST                     
1 20580U 90037B   23267.22319154  .00005938  00000+0  30734-3 0  9995
2 20580  28.4705 328.6268 0002345  22.6664  19.6154 15.14126814636743
SL-16 R/B               
1 20625U 90046B   23266.55780941 -.00000013  00000+0  17888-4 0  9992
2 20625  71.0023  23.7836 0016168 235.6563 124.3030 14.14775308721352
COSMOS 2084             
1 20663U 90055A   23266.75472008  .00005347  00000+0  41532-3 0  9994
2 20663  62.7916 137.1057 0130737  95.3636 266.2391 14.95990048801532
SL-6 R/B(2)             
1 20666U 90055D   23266.55935589  .00005120  00000+0  41210-3 0  9995
2 20666  62.7849  51.4327 0117303 117.0138 244.2991 14.95955757803465
SL-8 R/B                
1 20775U 90078B   23267.11286706  .00013941  00000+0  59283-3 0  9993
2 20775  82.9202 314.1501 0507799  67.6027 297.8147 14.51159860677464
SL-8 R/B                
1 21088U 91006B   23267.14821490  .00000168  00000+0  15394-3 0  9993
2 21088  82.9394 117.6671 0023301  31.6826  87.2050 13.77271203640780
OKEAN-3                 
1 21397U 91039A   23267.09193221  .00003196  00000+0  28172-3 0  9992
2 21397  82.5187 120.5983 0017942 126.1033 234.1853 14.96021270751519
COSMOS 2151             
1 21422U 91042A   23266.99384592  .00002851  00000+0  26278-3 0  9998
2 21422  82.4994 225.5453 0013082 194.9286 165.1551 14.94308969750018
SL-14 R/B               
1 21423U 91042B   23266.59804370  .00000653  00000+0  82475-4 0  9996
2 21423  82.4967 341.4736 0016310 313.0105  46.9741 14.80390954720139
ERS-1                   
1 21574U 91050A   23266.53526719  .00000509  00000+0  18153-3 0  9995
2 21574  98.7529 247.6192 0032558 347.0613  12.9735 14.38227620686573
ARIANE 40 R/B           
1 21610U 91050F   23266.74067384  .00000576  00000+0  19071-3 0  9991
2 21610  98.3279 330.9115 0001985 268.3538  91.7425 14.41491711689835
INTERCOSMOS 25          
1 21819U 91086A   23266.67020153  .00001660  00000+0  33598-3 0  9991
2 21819  82.6028 131.0825 1505363 246.2740  97.3573 12.07488918388109
SL-8 R/B                
1 21876U 92008B   23266.39867755  .00000151  00000+0  13969-3 0  9999
2 21876  82.9283 215.6783 0035916 121.8729 350.9737 13.75770750585895
SL-8 R/B                
1 21938U 92020B   23266.59706937  .00000202  00000+0  19479-3 0  9997
2 21938  82.9260 100.7260 0027966 285.2385 137.5714 13.75362877577670
COSMOS 2219             
1 22219U 92076A   23266.55208186  .00000199  00000+0  12989-3 0  9994
2 22219  71.0595  95.1647 0016457 137.0108 223.2304 14.13786873591425
SL-16 R/B               
1 22220U 92076B   23266.52771147  .00000332  00000+0  19017-3 0  9993
2 22220  70.9984 279.9411 0012138  13.9299  99.4732 14.16584339594622
COSMOS 2221             
1 22236U 92080A   23266.48175060  .00002919  00000+0  29851-3 0  9992
2 22236  82.5061  55.2671 0015032 322.7237  37.2937 14.90171362646744
SL-16 R/B               
1 22285U 92093B   23266.58703260 -.00000175  00000+0 -65319-4 0  9994
2 22285  71.0201  89.2569 0006579 249.5967 110.4450 14.15184368586083
COSMOS 2228             
1 22286U 92094A   23266.76766856  .00003329  00000+0  33645-3 0  9994
2 22286  82.5230  12.6153 0021619  74.1789 286.1811 14.90574945663061
SL-16 R/B               
1 22566U 93016B   23266.54481523 -.00000030  00000+0  92627-5 0  9995
2 22566  71.0076 301.2076 0012682 254.7080 105.2641 14.15083880575103
COSMOS 2242             
1 22626U 93024A   23266.48072387  .00003050  00000+0  31041-3 0  9993
2 22626  82.5220  41.5570 0019633  76.1790 284.1612 14.90304568646643
SL-16 R/B               
1 22803U 93059B   23266.60317102  .00000158  00000+0  10252-3 0  9996
2 22803  70.9884 104.6271 0015770 144.8906 215.3261 14.16951582552303
ARIANE 40 R/B           
1 22830U 93061H   23266.73522142  .00000386  00000+0  16050-3 0  9990
2 22830  98.6075 332.0924 0011780  60.0226 300.2125 14.31851944565805
COSMOS 2278             
1 23087U 94023A   23267.07097534  .00000495  00000+0  28542-3 0  9994
2 23087  71.0519 252.5340 0010368 310.9548  49.0677 14.13990364518157
SL-16 R/B               
1 23088U 94023B   23266.79142264  .00000138  00000+0  96260-4 0  9991
2 23088  71.0009 156.2403 0005115 242.3361 117.7242 14.14790428519351
